User: anonymous   Login
Location: Madden
(51.3728°N, 114.3297°W)
Time: 09:39:46
(UTC+00:00)
Language:

FLOCK 4Y 23 - Orbit

View from above orbital plane
View from above orbital plane
View from above satellite
View from above satellite

Ground track
Ground track

The orbit data is extracted from the following two-line orbital elements,

1 55080U 23001BZ  24146.42689600  .00015322  00000-0  55501-3 0  9998
2 55080  97.4269 208.6813 0011942 240.5734 119.4314 15.28409730 77328
Epoch (UTC): 25 May 2024 10:14:43
Eccentricity: 0.0011942
inclination: 97.4269°
perigee height: 472 km
apogee height: 489 km
right ascension of ascending node: 208.6813°
argument of perigee: 240.5734°
revolutions per day: 15.28409730
mean anomaly at epoch: 119.4314°
orbit number at epoch: 7732

The dashed part of the orbit path shows where the satellite is in the earth's shadow,  

DLR